Location: Unspecified
(42.7170°S, 0.0000°E)
Time: 19:19:18
(UTC+00:00)

N. Korean satellite - Pass Details

Date: 28 May 2019
Orbit: 455 x 510 km, 97.2° (Epoch: 17 June)

Event Time Altitude Azimuth Distance (km) Brightness Sun altitude
Exits shadow 18:14:18 11° 171° (S) 1,651 9.0 -17.4°
Maximum altitude 18:17:50 79° 255° (WSW) 530 6.7 -18.0°
Drops below altitude 10° 18:21:35 10° 343° (NNW) 1,736 9.7 -18.7°
Sets 18:23:40 0° 344° (NNW) 2,616 10.7 -19.1°
